Terminal Aerodrome Forecast
Issued by NWS

Home | Current Version | Previous Version | Text Only | Print | Product List | Glossary On
Versions: 1 2 3 4 5 6 7 8 9 10 11 12 13 14 15 16 17 18 19 20 21 22 23 24 25 26 27 28 29 30 31 32 33 34 35 36 37 38 39 40 41 42 43 44 45 46 47 48 49 50
000
FTUS43 KMKX 202330
TAFUES
TAF
KUES 202330Z 2100/2124 20003KT P6SM -SN BKN030 OVC060
     FM210600 VRB03KT P6SM OVC030
     FM210800 VRB03KT P6SM OVC015
     FM211000 18004KT P6SM OVC010
     FM211200 17005KT 6SM -FZDZ BR OVC008
     FM211700 17008KT 5SM -DZ BR OVC015
     FM211800 18009KT 6SM BR OVC015=

USA.gov is the U.S. government's official web portal to all federal, state and local government web resources and services.